Weather History for Hilo, HI

Change the Weather History Date:

Saturday, December 6, 2014

  Actual Average Record
Temperature  
Mean Temperature 72 °F 73 °F  
Max Temperature 77 °F 80 °F 91 °F (1977)
Min Temperature 67 °F 66 °F 60 °F (1962)
Degree Days  
Heating Degree Days 0 0  
Month to date heating degree days 0 0  
Since 1 July heating degree days 0 0  
Cooling Degree Days 7 8  
Month to date cooling degree days 46 48  
Year to date cooling degree days 3456 3055  
Growing Degree Days 22 (Base 50)    
Moisture  
Dew Point 66 °F    
Average Humidity 79    
Maximum Humidity 90    
Minimum Humidity 68    
Precipitation  
Precipitation 0.15 in 0.40 in 8.00 in (1950)
Month to date precipitation 1.11 2.44  
Year to date precipitation 110.25 117.59  
Snow  
Snow 0.00 in - - ()
Month to date snowfall 0.0  
Since 1 July snowfall 0.0  
Snow Depth 0.00 in    
Sea Level Pressure  
Sea Level Pressure 30.04 in    
Wind  
Wind Speed 5 mph (NW)    
Max Wind Speed 15 mph    
Max Gust Speed 18 mph    
Visibility 9 miles    
Events Rain    
T = Trace of Precipitation, MM = Missing Value Source: NWS Daily Summary

Daily Weather History Graph

Daily Weather History Graph

Search for Another Location

Airport:

Trip Planner

Search our weather history database for the weather conditions in past years. The results will help you decide how hot, cold, wet, or windy it might be!

Date:

Astronomy

Dec. 06, 2014 Rise Set
Actual Time 6:41 AM HST 5:41 PM HST
Civil Twilight 6:17 AM HST 6:04 PM HST
Nautical Twilight 5:50 AM HST 6:32 PM HST
Astronomical Twilight 5:23 AM HST 6:59 PM HST
Moon 6:19 PM HST (12/6) 6:49 AM HST (12/6)
Length of Visible Light 11h 47m
Length of Day
10h 59m
Full, 100% of the Moon is Illuminated
Dec 6
Full
Dec 14
Last Quarter
Dec 21
New
Dec 28
First Quarter
Jan 4
Full

Hourly Weather History & Observations

Time (HST) Temp. Dew Point Humidity Pressure Visibility Wind Dir Wind Speed Gust Speed Precip Events Conditions
12:10 AM 70.0 °F 64.9 °F 84% 30.03 in 9.0 mi Calm Calm - 0.00 in Rain Light Rain
12:53 AM 71.1 °F 68.0 °F 90% 30.03 in 5.0 mi NE 5.8 mph - 0.06 in Rain Light Rain
1:01 AM 71.1 °F 68.0 °F 90% 30.03 in 5.0 mi NNE 4.6 mph - 0.00 in Rain Light Rain
1:53 AM 69.1 °F 66.9 °F 93% 30.01 in 10.0 mi WSW 4.6 mph - 0.01 in   Overcast
2:53 AM 70.0 °F 66.9 °F 90% 30.00 in 10.0 mi WSW 8.1 mph - 0.04 in   Overcast
3:53 AM 69.1 °F 66.0 °F 90% 30.00 in 10.0 mi WSW 5.8 mph - 0.00 in   Overcast
4:53 AM 69.1 °F 64.0 °F 84% 30.01 in 10.0 mi West 5.8 mph - N/A   Mostly Cloudy
5:53 AM 68.0 °F 64.9 °F 90% 30.02 in 10.0 mi SW 4.6 mph - N/A   Mostly Cloudy
6:19 AM 68.0 °F 64.9 °F 90% 30.04 in 10.0 mi WSW 5.8 mph - N/A   Mostly Cloudy
6:48 AM 69.8 °F 66.2 °F 88% 30.05 in 6.0 mi Calm Calm - 0.02 in Rain Light Rain
6:53 AM 69.1 °F 66.9 °F 93% 30.05 in 8.0 mi SW 4.6 mph - 0.02 in Rain Light Rain
7:53 AM 69.1 °F 64.9 °F 87% 30.07 in 10.0 mi WSW 6.9 mph - 0.00 in   Mostly Cloudy
8:53 AM 71.1 °F 68.0 °F 90% 30.09 in 10.0 mi West 4.6 mph - 0.01 in   Overcast
9:35 AM 73.0 °F 69.1 °F 87% 30.09 in 10.0 mi Calm Calm - 0.01 in   Overcast
9:53 AM 75.0 °F 69.1 °F 82% 30.08 in 10.0 mi NNE 5.8 mph - 0.01 in   Overcast
10:10 AM 75.9 °F 66.9 °F 74% 30.08 in 10.0 mi Calm Calm - N/A   Overcast
10:53 AM 73.9 °F 69.1 °F 85% 30.07 in 10.0 mi WSW 5.8 mph - N/A   Overcast
11:53 AM 77.0 °F 66.0 °F 69% 30.05 in 10.0 mi ENE 9.2 mph - 0.00 in   Overcast
12:02 PM 73.9 °F 64.9 °F 73% 30.05 in 6.0 mi East 3.5 mph - 0.00 in Rain Light Rain
12:53 PM 75.0 °F 66.0 °F 73% 30.01 in 10.0 mi Calm Calm - 0.00 in   Overcast
1:53 PM 75.9 °F 66.0 °F 71% 29.99 in 10.0 mi Calm Calm - 0.00 in   Overcast
2:53 PM 77.0 °F 66.0 °F 69% 29.98 in 10.0 mi North 4.6 mph - N/A   Overcast
3:53 PM 75.9 °F 64.9 °F 69% 30.00 in 10.0 mi NNE 6.9 mph - 0.00 in   Overcast
4:53 PM 75.0 °F 64.0 °F 69% 30.01 in 10.0 mi North 4.6 mph - 0.00 in   Overcast
5:53 PM 75.0 °F 64.0 °F 69% 30.03 in 10.0 mi NE 5.8 mph - N/A   Overcast
6:53 PM 73.9 °F 64.0 °F 71% 30.04 in 10.0 mi NE 6.9 mph - N/A   Mostly Cloudy
7:53 PM 73.9 °F 64.0 °F 71% 30.06 in 10.0 mi NE 4.6 mph - N/A   Mostly Cloudy
8:53 PM 73.9 °F 62.1 °F 66% 30.07 in 10.0 mi NE 5.8 mph - N/A   Overcast
9:53 PM 73.9 °F 62.1 °F 66% 30.09 in 10.0 mi NE 5.8 mph - N/A   Mostly Cloudy
10:53 PM 70.0 °F 63.0 °F 78% 30.09 in 10.0 mi SW 4.6 mph - N/A   Mostly Cloudy
11:53 PM 69.1 °F 63.0 °F 81% 30.08 in 10.0 mi WSW 4.6 mph - N/A   Mostly Cloudy